This is the latest recevied weather packets stored in our database for station/object M3YFM-13. If no packets are shown the sender has not sent any weather packets the latest 10 day(s).
| Time | Temp. | Humidity | Pressure | Rain* | Wind** | Luminosity | Snow |
|---|---|---|---|---|---|---|---|
| 1777981104 | 16.11° C | 48% | - | 0 mm | - | - | - |
| 1777980804 | 16.11° C | 48% | - | 0 mm | - | - | - |
| 1777980503 | 16.11° C | 48% | - | 0 mm | - | - | - |
| 1777980203 | 15.56° C | 50% | - | 0 mm | - | - | - |
| 1777979903 | 15.56° C | 49% | - | 0 mm | - | - | - |
| 1777979602 | 15.56° C | 48% | - | 0 mm | - | - | - |
| 1777979302 | 15° C | 50% | - | 0 mm | - | - | - |
| 1777979002 | 14.44° C | 49% | - | 0 mm | - | - | - |
| 1777978702 | 14.44° C | 50% | - | 0 mm | - | - | - |
| 1777978101 | 14.44° C | 50% | - | 0 mm | - | - | - |
| 1777977801 | 14.44° C | 50% | - | 0 mm | - | - | - |
| 1777977501 | 14.44° C | 50% | - | 0 mm | - | - | - |
| 1777977200 | 15° C | 47% | - | 0 mm | - | - | - |
| 1777976900 | 15.56° C | 49% | - | 0 mm | - | - | - |
| 1777976599 | 14.44° C | 50% | - | 0 mm | - | - | - |
| 1777976298 | 14.44° C | 50% | - | 0 mm | - | - | - |
| 1777975697 | 15.56° C | 51% | - | 0 mm | - | - | - |
| 1777975097 | 15° C | 51% | - | 0 mm | - | - | - |
| 1777974496 | 15° C | 53% | - | 0 mm | - | - | - |
| 1777973896 | 14.44° C | 53% | - | 0 mm | - | - | - |
| 1777973595 | 14.44° C | 51% | - | 0 mm | - | - | - |
| 1777973295 | 14.44° C | 53% | - | 0 mm | - | - | - |
| 1777972995 | 14.44° C | 53% | - | 0 mm | - | - | - |
| 1777972694 | 14.44° C | 49% | - | 0 mm | - | - | - |
| 1777972394 | 15.56° C | 52% | - | 0 mm | - | - | - |
* Rain since midnight (hover to see other rain measurements)
** Current wind speed in m/s (hover to see current wind gust speed)